DW9498 Weather Reports


Display with metric or nautical units.
time (UTC)temp
F
wind
direction
speed
MPH
gust
MPH
rain 1hr
in
rain 24hr
in
rain mn
in
humidity
%
barometer
mb
20260504000323 75 68 0.0 1.0 0.00 0.00 0.00 30 1008.0
20260503235334 75 357 1.0 3.0 0.00 0.00 0.00 29 1008.0
20260503234359 76 197 0.0 4.0 0.00 0.00 0.00 31 1008.0
20260503233348 77 2 1.0 4.0 0.00 0.00 0.00 29 1008.1
20260503232328 77 26 1.0 5.0 0.00 0.00 0.00 30 1008.2
20260503231336 78 6 1.0 9.0 0.00 0.00 0.00 29 1008.3
20260503230347 78 247 1.0 3.0 0.00 0.00 0.00 28 1008.2
20260503225332 78 269 1.0 4.0 0.00 0.00 0.00 28 1008.3
20260503224346 78 221 0.0 2.0 0.00 0.00 0.00 30 1008.3
20260503223412 78 143 1.0 3.0 0.00 0.00 0.00 28 1008.4
20260503222335 77 40 1.0 5.0 0.00 0.00 0.00 29 1008.5
20260503221341 78 344 0.0 5.0 0.00 0.00 0.00 29 1008.4
20260503220349 78 199 2.0 5.0 0.00 0.00 0.00 29 1008.6
20260503215334 77 173 1.0 5.0 0.00 0.00 0.00 30 1008.5
20260503214339 76 15 1.0 7.0 0.00 0.00 0.00 28 1009.0
20260503213349 78 45 3.0 6.0 0.00 0.00 0.00 30 1009.0
20260503212331 77 263 1.0 3.0 0.00 0.00 0.00 30 1009.0
20260503211401 76 263 1.0 4.0 0.00 0.00 0.00 30 1009.4
20260503210348 76 359 3.0 6.0 0.00 0.00 0.00 32 1009.6
20260503205334 74 269 3.0 6.0 0.00 0.00 0.00 31 1009.7
20260503204337 74 97 3.0 6.0 0.00 0.00 0.00 32 1009.9
20260503203325 75 359 3.0 8.0 0.00 0.00 0.00 31 1010.0
20260503202357 74 18 2.0 5.0 0.00 0.00 0.00 33 1010.0
20260503201340 75 15 2.0 5.0 0.00 0.00 0.00 33 1010.2
20260503200347 74 294 3.0 7.0 0.00 0.00 0.00 32 1010.2
20260503195330 73 20 1.0 7.0 0.00 0.00 0.00 32 1010.4
20260503194334 72 333 4.0 9.0 0.00 0.00 0.00 33 1010.5
20260503193348 73 26 3.0 7.0 0.00 0.00 0.00 33 1010.5
20260503192334 72 32 4.0 10.0 0.00 0.00 0.00 34 1010.7
20260503191339 74 10 5.0 9.0 0.00 0.00 0.00 31 1010.6
20260503190327 73 22 3.0 8.0 0.00 0.00 0.00 32 1010.8
20260503185339 73 31 2.0 9.0 0.00 0.00 0.00 34 1010.8
20260503184326 73 15 3.0 8.0 0.00 0.00 0.00 33 1010.9
20260503183355 72 3 3.0 10.0 0.00 0.00 0.00 34 1010.9
20260503182323 71 22 3.0 9.0 0.00 0.00 0.00 35 1011.0
20260503181340 71 24 3.0 9.0 0.00 0.00 0.00 36 1011.3
20260503180330 70 17 5.0 9.0 0.00 0.00 0.00 32 1011.4
20260503175404 70 3 4.0 9.0 0.00 0.00 0.00 35 1011.5
20260503174328 70 332 2.0 7.0 0.00 0.00 0.00 36 1011.6
20260503173338 70 33 4.0 9.0 0.00 0.00 0.00 33 1011.7
20260503172350 71 348 4.0 8.0 0.00 0.00 0.00 35 1011.7
20260503171335 70 28 2.0 6.0 0.00 0.00 0.00 39 1011.8
20260503170345 70 2 4.0 6.0 0.00 0.00 0.00 37 1011.8
20260503150338 62 94 1.0 6.0 0.00 0.00 0.00 48 1011.7
20260503131333 57 166 2.0 6.0 0.00 0.00 0.00 50 1010.8
20260503130323 56 96 1.0 7.0 0.00 0.00 0.00 51 1011.2
20260503110324 54 79 1.0 4.0 0.00 0.00 0.00 48 1010.7
20260503090351 55 154 2.0 4.0 0.00 0.00 0.00 46 1010.3
20260503081340 55 178 2.0 5.0 0.00 0.00 0.00 45 1010.8
20260503080329 55 220 2.0 8.0 0.00 0.00 0.00 44 1010.8
20260503072328 55 167 2.0 5.0 0.00 0.00 0.00 45 1011.1
20260503071332 55 223 2.0 4.0 0.00 0.00 0.00 45 1011.2
20260503070325 55 206 1.0 3.0 0.00 0.00 0.00 44 1011.2
20260503060334 57 165 3.0 7.0 0.00 0.00 0.00 40 1012.0
20260503054356 57 193 3.0 7.0 0.00 0.00 0.00 40 1012.2
20260503053347 57 247 2.0 8.0 0.00 0.00 0.00 40 1012.2
20260503052326 57 181 1.0 7.0 0.00 0.00 0.00 40 1012.2
20260503051349 56 189 3.0 6.0 0.00 0.00 0.00 41 1012.2
20260503050338 56 159 3.0 6.0 0.00 0.00 0.00 42 1012.3
20260503045323 56 198 3.0 5.0 0.00 0.00 0.00 42 1012.3
20260503044329 57 161 1.0 6.0 0.00 0.00 0.00 42 1012.5
20260503043339 57 217 3.0 6.0 0.00 0.00 0.00 42 1012.4
20260503042324 57 218 2.0 5.0 0.00 0.00 0.00 41 1012.7
20260503041343 58 138 3.0 8.0 0.00 0.00 0.00 41 1012.7
20260503040324 58 255 2.0 7.0 0.00 0.00 0.00 40 1012.9
20260503035359 58 232 2.0 5.0 0.00 0.00 0.00 40 1012.9
20260503034326 58 208 2.0 7.0 0.00 0.00 0.00 38 1013.1
20260503033336 59 159 2.0 6.0 0.00 0.00 0.00 37 1013.1
20260503032327 59 223 2.0 5.0 0.00 0.00 0.00 36 1013.4
20260503031337 59 225 2.0 5.0 0.00 0.00 0.00 36 1013.4
20260503030327 59 196 1.0 4.0 0.00 0.00 0.00 36 1013.5
20260503025340 59 217 1.0 5.0 0.00 0.00 0.00 36 1013.6
20260503024338 59 243 0.0 3.0 0.00 0.00 0.00 35 1013.8
20260503023328 59 140 1.0 2.0 0.00 0.00 0.00 36 1013.9
20260503022341 59 169 0.0 1.0 0.00 0.00 0.00 36 1013.9
20260503021326 60 173 0.0 1.0 0.00 0.00 0.00 37 1014.0
20260503020334 60 164 0.0 0.0 0.00 0.00 0.00 36 1014.1
20260503015329 61 164 0.0 0.0 0.00 0.00 0.00 35 1014.2
20260503014335 62 164 0.0 0.0 0.00 0.00 0.00 33 1014.2
20260503013348 63 164 0.0 0.0 0.00 0.00 0.00 32 1014.2
20260503012332 64 164 0.0 3.0 0.00 0.00 0.00 30 1014.1
20260503011339 65 191 1.0 3.0 0.00 0.00 0.00 29 1014.1
20260503010349 66 175 2.0 4.0 0.00 0.00 0.00 29 1014.2
20260503005353 66 168 2.0 4.0 0.00 0.00 0.00 28 1014.2
20260503004337 66 140 2.0 5.0 0.00 0.00 0.00 28 1014.2
20260503003345 67 256 3.0 6.0 0.00 0.00 0.00 27 1014.3
20260503002326 68 183 3.0 6.0 0.00 0.00 0.00 26 1014.3
20260503001325 68 246 2.0 5.0 0.00 0.00 0.00 26 1014.5